Location: Hobi?a Gr?di?te
(45.4833°N, 22.7833°E)
Time: 21:40:26
(UTC+00:00)

Cosmos 2263 Rocket - Pass Details

Date: 28 January 2023
Orbit: 825 x 847 km, 71.0° (Epoch: 22 March)

Event Time Altitude Azimuth Distance (km) Brightness Sun altitude
Rises 17:09:41 0° 331° (NNW) 3,375 5.6 -17.6°
Reaches altitude 10° 17:12:08 10° 329° (NNW) 2,436 4.9 -18.0°
Maximum altitude 17:17:39 67° 248° (WSW) 891 2.5 -19.0°
Drops below altitude 10° 17:23:09 10° 167° (SSE) 2,418 4.5 -20.0°
Sets 17:25:35 0° 164° (SSE) 3,348 5.2 -20.4°
